Find Starlink 31123

NORAD ID: 58775 Int'l Des: 2024-011 Owner: SPXS Country: US Constellation: starlink operational
LEOCIRCULAR

当前视图

正在加载3D地球...

About Starlink 31123

Starlink 31123 (NORAD 58775) is a starlink constellation satellite (v2 mini) launched Jan 14, 2024 by SPXS of US. It operates in LEO, CIRCULAR orbit with a mass of 730.00 kg.

关于 Starlink 31123

正在加载描述...

即将过境

Passes for default location (London). Set your location on the main map for personalized predictions.

高度历史

Loading altitude history...

两行轨道根数

1 58775U 24011L 26168.52284098 .00025690 00000-0 76869-3 0 9992
2 58775 53.1601 269.3619 0001812 40.8151 319.2987 15.34406190 8816
Epoch: Jun 17, 2026 • Age: 14 hours

当前状态

高度 462.1 km
速度 7.64 km/s
星下点 4.14°N, 36.24°W
发射日期 Jan 14, 2024
运行时间 2.4 years
类型 internet

技术详情

分类 Payload
质量 730.00 kg
干质量 700.00 kg
总质量 730.00 kg
长度 0.30 m
直径 4.10 m
跨度 29.00 m
形状 Box + pan
制造商 SPXS
平台类型 Starlink V2M
阶段状态 In Orbit
所有者/国家 SPXS/US

Most Searched